Meteo Giornale » Osservazioni meteo Italia » Bari-Palese Macchie

ore: 00:50 - Osservazioni Meteo Bari-Palese Macchie
Lat. 41° 8' N Lon. 16° 47' E Alt. 34 metri s.l.m.

sereno Europe/Rome

22 °C

Sereno

Temp. 24 Ore

22 °C

30 °C

Sud-Ovest

9.3 Km/h

Dew point 16 °C

Umidità 68 %

Visibilità  10 Km

Il sole sorge alle ore 05:18

Il sole tramonta alle ore 20:29

Data e Ora Cielo e Fenomeni T °C DP °C Um. % Pres. hPa Vis. km Vento km/h
Oggi h: 00:50 sereno Sereno 22 16 68 1013 10 SO 9.3
Oggi h: 00:20 sereno Sereno 22 17 73 1013 10 O 7.4
Ieri h: 23:50 sereno Sereno 22 17 73 1013 10 O 7.4
Ieri h: 23:20 sereno Sereno 22 18 78 1013 10 N 1.8
Ieri h: 22:50 sereno Sereno 22 18 78 1013 10 N 1.8
Ieri h: 22:20 sereno Sereno 23 18 73 1012 10 N 3.7
Ieri h: 21:50 sereno Sereno 24 18 69 1012 10 N 3.7
Ieri h: 21:20 sereno Sereno 25 18 65 1012 10 O/SO 7.4
Ieri h: 20:50 sereno Sereno 25 18 65 1012 10 N 3.7
Ieri h: 20:20 sereno Sereno 26 18 61 1012 10 N 1.8
Ieri h: 19:50 sereno Sereno 26 18 61 1012 10 N 5.5
Ieri h: 19:20 sereno Sereno 27 18 57 1012 10 NE 7.4
Ieri h: 18:50 sereno Sereno 27 18 57 1012 10 N/NE 13
Ieri h: 18:20 sereno Sereno 28 18 54 1012 10 N/NE 14.8
Ieri h: 17:50 sereno Sereno 28 17 51 1011 10 N 14.8
Ieri h: 17:20 sereno Sereno 28 18 54 1011 10 N/NE 16.7
Ieri h: 16:50 sereno Sereno 29 17 48 1011 10 N/NE 18.5
Ieri h: 16:20 sereno Sereno 29 17 48 1012 10 N/NE 20.3
Ieri h: 15:50 sereno Sereno 29 17 48 1012 10 N/NE 18.5
Ieri h: 15:20 sereno Sereno 29 19 54 1012 10 N/NE 16.7
Ieri h: 14:50 sereno Sereno 29 19 54 1012 10 N/NE 18.5
Ieri h: 14:20 sereno Sereno 29 19 54 1013 10 N/NE 18.5
Ieri h: 13:50 sereno Sereno 29 19 54 1013 10 N/NE 22.2
Ieri h: 13:20 sereno Sereno 29 19 54 1013 10 N 25.9
Ieri h: 12:50 sereno Sereno 30 18 48 1013 10 N 20.3
Ieri h: 12:20 sereno Sereno 30 17 45 1013 10 N 20.3
Ieri h: 11:50 sereno Sereno 30 16 42 1013 10 N 20.3
Ieri h: 11:20 sereno Sereno 30 16 42 1013 10 N 22.2
Ieri h: 10:50 sereno Sereno 30 16 42 1013 10 N 22.2
Ieri h: 10:20 sereno Sereno 30 16 42 1013 10 N/NO 20.3
Ieri h: 09:50 sereno Sereno 30 15 40 1013 10 N/NO 22.2
Ieri h: 09:20 sereno Sereno 30 14 37 1012 10 N/NO 20.3
Ieri h: 08:50 sereno Sereno 30 14 37 1012 10 NO 16.7
Ieri h: 08:20 sereno Sereno 29 14 39 1012 10 N/NO 13
Ieri h: 07:50 sereno Sereno 28 16 48 1012 10 N/NO 7.4
Ieri h: 07:20 sereno Sereno 26 17 57 1012 10 N 1.8
Ieri h: 06:50 sereno Sereno 24 18 69 1012 10 N 1.8
Ieri h: 05:50 sereno Sereno 22 16 68 1011 10 N 5.5
Ieri h: 05:20 sereno Sereno 22 17 73 1011 10 SO 7.4
Ieri h: 04:50 sereno Sereno 22 17 73 1011 10 N 5.5
Ieri h: 04:20 sereno Sereno 24 17 64 1011 10 O 7.4
Ieri h: 03:50 sereno Sereno 24 17 64 1011 10 O/NO 7.4
Ieri h: 03:20 sereno Sereno 25 18 65 1012 10 NO 11.1
Ieri h: 02:50 sereno Sereno 25 18 65 1012 10 O/NO 13
Ieri h: 02:20 sereno Sereno 24 17 64 1012 10 O/NO 11.1
Ieri h: 01:50 sereno Sereno 24 16 60 1012 10 O/NO 9.3